�v������,���r���O(���x),�����t���O,���r���O(���x),�����t���O,��1(���x),�����t���O,��1(���x),�����t���O,�O�C���x,�����t���O,�O�C���x,�����t���O,�������x,�����t���O,�C�ۑ�(���x),�����t���O,�C�ۑ�(���x),�����t���O
10/1/2003 0:00,23.6,0,39,0,19.4,0,36,0,24.7,0,45,0,0,2,17.5,0,45.8,0
10/1/2003 0:15,23.6,0,39,0,18.8,0,36,0,24.8,0,46,0,0,2,17.4,0,45.8,0
10/1/2003 0:30,23.4,0,39,0,19.2,0,36,0,24.8,0,48,0,0,2,17.4,0,45.8,0
10/1/2003 0:45,23.4,0,40,0,18.6,0,37,0,24.9,0,48,0,0,2,17.3,0,45.8,0
10/1/2003 1:00,23.3,0,40,0,18,0,41,0,24.9,0,49,0,0,2,17.3,0,45.8,0
10/1/2003 1:15,23.2,0,41,0,18,0,43,0,24.9,0,49,0,0,2,17.1,0,47,0
10/1/2003 1:30,23.1,0,41,0,17.7,0,44,0,24.9,0,49,0,0,2,16.9,0,48.3,0
10/1/2003 1:45,23,0,42,0,18,0,43,0,24.9,0,49,0,0,2,16.8,0,49.5,0
10/1/2003 2:00,22.9,0,42,0,18.5,0,45,0,24.8,0,49,0,0,2,16.6,0,50.8,0
10/1/2003 2:15,22.8,0,42,0,16.8,0,48,0,24.8,0,49,0,0,2,16.5,0,51,0
10/1/2003 2:30,22.8,0,43,0,16.7,0,51,0,24.8,0,49,0,0,2,16.4,0,51.3,0
10/1/2003 2:45,22.6,0,43,0,16.5,0,51,0,24.8,0,49,0,0,2,16.4,0,51.5,0
10/1/2003 3:00,22.5,0,44,0,16.8,0,51,0,24.8,0,50,0,0,2,16.3,0,51.8,0
10/1/2003 3:15,22.5,0,44,0,16.2,0,52,0,24.8,0,51,0,0,2,16.3,0,51.8,0
10/1/2003 3:30,22.5,0,44,0,15.5,0,55,0,24.7,0,50,0,0,2,16.3,0,51.8,0
10/1/2003 3:45,22.4,0,44,0,15.8,0,55,0,24.7,0,50,0,0,2,16.4,0,51.8,0
10/1/2003 4:00,22.3,0,44,0,15,0,57,0,24.7,0,50,0,0,2,16.4,0,51.8,0
10/1/2003 4:15,22.2,0,45,0,15.3,0,57,0,24.6,0,50,0,0,2,16.3,0,52,0
10/1/2003 4:30,22.2,0,45,0,15.2,0,58,0,24.6,0,49,0,0,2,16.3,0,52.3,0
10/1/2003 4:45,22.1,0,45,0,15.9,0,56,0,24.5,0,50,0,0,2,16.2,0,52.5,0
10/1/2003 5:00,22.1,0,45,0,16.3,0,55,0,24.5,0,51,0,0,2,16.2,0,52.8,0
10/1/2003 5:15,22,0,46,0,17.2,0,52,0,24.5,0,50,0,0,2,16.2,0,52.5,0
10/1/2003 5:30,22,0,46,0,16.2,0,54,0,24.4,0,51,0,0,2,16.1,0,52.3,0
10/1/2003 5:45,21.9,0,46,0,16.6,0,53,0,24.3,0,50,0,0,2,16.1,0,52,0
10/1/2003 6:00,21.9,0,47,0,16.5,0,52,0,24.3,0,50,0,0,2,16.1,0,51.8,0
10/1/2003 6:15,21.8,0,48,0,16.3,0,55,0,24.2,0,51,0,0,2,16.3,0,53,0
10/1/2003 6:30,21.8,0,48,0,16.4,0,55,0,24.2,0,48,0,0,2,16.6,0,54.3,0
10/1/2003 6:45,21.8,0,48,0,16.8,0,53,0,24,0,48,0,0,2,16.8,0,55.5,0
10/1/2003 7:00,21.8,0,49,0,17.8,0,51,0,23.8,0,46,0,0,2,17.1,0,56.8,0
10/1/2003 7:15,21.9,0,48,0,17.9,0,50,0,23.7,0,46,0,0,2,17.6,0,55.3,0
10/1/2003 7:30,22,0,48,0,17.6,0,49,0,23.6,0,45,0,0,2,18.2,0,53.8,0
10/1/2003 7:45,22.1,0,47,0,18,0,47,0,23.7,0,45,0,0,2,18.7,0,52.3,0
10/1/2003 8:00,22.3,0,46,0,19,0,44,0,23.8,0,42,0,0,2,19.3,0,50.8,0
10/1/2003 8:15,22.5,0,44,0,19.1,0,42,0,23.9,0,41,0,0,2,19.4,0,50.8,0
10/1/2003 8:30,22.7,0,44,0,18.9,0,42,0,24,0,41,0,0,2,19.5,0,50.8,0
10/1/2003 8:45,22.8,0,43,0,19.5,0,42,0,24.1,0,41,0,0,2,19.6,0,50.8,0
10/1/2003 9:00,23,0,43,0,19.7,0,40,0,24.4,0,40,0,0,2,19.7,0,50.8,0
10/1/2003 9:15,23.1,0,43,0,19.9,0,40,0,24.5,0,40,0,0,2,20.1,0,50.8,0
10/1/2003 9:30,23.3,0,43,0,20.3,0,39,0,24.7,0,39,0,0,2,20.5,0,50.8,0
10/1/2003 9:45,23.6,0,42,0,20.6,0,39,0,24.9,0,39,0,0,2,21,0,50.8,0
10/1/2003 10:00,23.7,0,42,0,21.1,0,37,0,25.2,0,38,0,0,2,21.4,0,50.8,0
10/1/2003 10:15,23.9,0,42,0,21.5,0,39,0,25.4,0,37,0,0,2,21.3,0,50.3,0
10/1/2003 10:30,24.1,0,41,0,22,0,41,0,25.5,0,38,0,0,2,21.3,0,49.8,0
10/1/2003 10:45,24.2,0,41,0,22.4,0,41,0,25.8,0,38,0,0,2,21.2,0,49.3,0
10/1/2003 11:00,24.3,0,42,0,22.5,0,41,0,25.7,0,37,0,0,2,21.2,0,48.8,0
10/1/2003 11:15,24.3,0,41,0,23,0,40,0,25.8,0,38,0,0,2,21.7,0,48.5,0
10/1/2003 11:30,24.4,0,42,0,23.3,0,39,0,25.8,0,38,0,0,2,22.2,0,48.3,0
10/1/2003 11:45,24.4,0,42,0,24,0,38,0,25.9,0,39,0,0,2,22.8,0,48,0
10/1/2003 12:00,24.5,0,42,0,24.3,0,38,0,25.9,0,39,0,0,2,23.3,0,47.8,0
10/1/2003 12:15,24.6,0,43,0,24.5,0,37,0,26,0,39,0,0,2,23.3,0,48.3,0
10/1/2003 12:30,24.6,0,42,0,24.7,0,37,0,26.1,0,39,0,0,2,23.3,0,48.8,0
10/1/2003 12:45,24.7,0,42,0,24.5,0,37,0,26,0,39,0,0,2,23.3,0,49.3,0
10/1/2003 13:00,24.8,0,42,0,24.8,0,36,0,26.1,0,39,0,0,2,23.3,0,49.8,0
10/1/2003 13:15,24.9,0,42,0,25,0,36,0,26.1,0,39,0,0,2,23.5,0,50.3,0
10/1/2003 13:30,24.9,0,42,0,24.6,0,39,0,26,0,39,0,0,2,23.6,0,50.8,0
10/1/2003 13:45,25,0,42,0,25.3,0,38,0,26,0,40,0,0,2,23.8,0,51.3,0
10/1/2003 14:00,25.1,0,42,0,25.1,0,39,0,25.9,0,41,0,0,2,24,0,51.8,0
10/1/2003 14:15,25.1,0,42,0,24.4,0,41,0,25.7,0,42,0,0,2,23.9,0,52.3,0
10/1/2003 14:30,25.1,0,43,0,24.3,0,42,0,25.8,0,42,0,0,2,23.8,0,52.8,0
10/1/2003 14:45,25.2,0,43,0,24.1,0,43,0,25.7,0,43,0,0,2,23.7,0,53.3,0
10/1/2003 15:00,25.2,0,44,0,23.9,0,43,0,25.6,0,43,0,0,2,23.6,0,53.8,0
10/1/2003 15:15,25.3,0,44,0,24,0,44,0,25.8,0,43,0,0,2,23.6,0,53.8,0
10/1/2003 15:30,25.4,0,45,0,23.9,0,44,0,26,0,43,0,0,2,23.5,0,53.8,0
10/1/2003 15:45,25.5,0,44,0,23.8,0,45,0,25.8,0,44,0,0,2,23.5,0,53.8,0
10/1/2003 16:00,25.4,0,45,0,23.4,0,45,0,25.6,0,44,0,0,2,23.5,0,53.8,0
10/1/2003 16:15,25.2,0,45,0,23.4,0,46,0,25.3,0,45,0,0,2,23.4,0,53.5,0
10/1/2003 16:30,25.1,0,46,0,23.3,0,46,0,25.4,0,44,0,0,2,23.4,0,53.3,0
10/1/2003 16:45,25.1,0,46,0,23.3,0,45,0,25.4,0,44,0,0,2,23.3,0,53,0
10/1/2003 17:00,25.1,0,45,0,23.2,0,45,0,25.3,0,44,0,0,2,23.3,0,52.8,0
10/1/2003 17:15,25,0,46,0,23.1,0,45,0,25.3,0,44,0,0,2,23.2,0,53.5,0
10/1/2003 17:30,24.9,0,45,0,23.1,0,45,0,25.3,0,44,0,0,2,23,0,54.3,0
10/1/2003 17:45,24.9,0,46,0,23.2,0,45,0,25.2,0,44,0,0,2,22.9,0,55,0
10/1/2003 18:00,24.9,0,45,0,23.2,0,46,0,25.2,0,44,0,0,2,22.8,0,55.8,0
10/1/2003 18:15,24.8,0,45,0,23,0,46,0,25.1,0,45,0,0,2,22.7,0,55.5,0
10/1/2003 18:30,24.8,0,45,0,22.9,0,47,0,25.2,0,45,0,0,2,22.5,0,55.3,0
10/1/2003 18:45,24.8,0,46,0,22.7,0,48,0,25.1,0,45,0,0,2,22.4,0,55,0
10/1/2003 19:00,24.8,0,46,0,22.7,0,48,0,25.1,0,45,0,0,2,22.3,0,54.8,0
10/1/2003 19:15,24.9,0,46,0,22.6,0,48,0,25.1,0,46,0,0,2,22.2,0,55.5,0
10/1/2003 19:30,24.8,0,46,0,22.4,0,48,0,25.1,0,46,0,0,2,22.1,0,56.3,0
10/1/2003 19:45,24.9,0,47,0,22.4,0,48,0,25.1,0,46,0,0,2,22,0,57,0
10/1/2003 20:00,25,0,48,0,22.2,0,49,0,25,0,46,0,0,2,21.9,0,57.8,0
10/1/2003 20:15,25,0,48,0,22.2,0,49,0,25,0,47,0,0,2,21.8,0,58.3,0
10/1/2003 20:30,25,0,47,0,22,0,50,0,25,0,47,0,0,2,21.8,0,58.8,0
10/1/2003 20:45,25,0,48,0,21.9,0,50,0,25,0,47,0,0,2,21.7,0,59.3,0
10/1/2003 21:00,25,0,47,0,21.9,0,50,0,24.9,0,47,0,0,2,21.7,0,59.8,0
10/1/2003 21:15,24.9,0,47,0,21.9,0,49,0,24.9,0,47,0,0,2,21.7,0,60.5,0
10/1/2003 21:30,24.9,0,47,0,21.8,0,49,0,24.9,0,47,0,0,2,21.7,0,61.3,0
10/1/2003 21:45,24.8,0,47,0,21.7,0,50,0,24.9,0,47,0,0,2,21.7,0,62,0
10/1/2003 22:00,24.7,0,47,0,21.7,0,50,0,24.8,0,47,0,0,2,21.7,0,62.8,0
10/1/2003 22:15,24.8,0,48,0,21.4,0,50,0,24.8,0,47,0,0,2,21.8,0,62.3,0
10/1/2003 22:30,24.8,0,48,0,21.4,0,50,0,24.8,0,47,0,0,2,21.8,0,61.8,0
10/1/2003 22:45,24.8,0,47,0,21.6,0,48,0,24.8,0,48,0,0,2,21.9,0,61.3,0
10/1/2003 23:00,24.9,0,48,0,21.3,0,47,0,24.9,0,49,0,0,2,22,0,60.8,0
10/1/2003 23:15,24.9,0,48,0,20.9,0,48,0,25,0,50,0,0,2,21.8,0,60,0
10/1/2003 23:30,24.8,0,47,0,21,0,47,0,25.1,0,51,0,0,2,21.5,0,59.3,0
10/1/2003 23:45,24.7,0,47,0,20.9,0,46,0,25.1,0,52,0,0,2,21.3,0,58.5,0
10/2/2003 0:00,24.6,0,47,0,20.9,0,47,0,25.2,0,53,0,0,2,21.1,0,57.8,0
10/2/2003 0:15,24.5,0,47,0,20.7,0,47,0,25.2,0,54,0,0,2,21.1,0,57.8,0
10/2/2003 0:30,24.4,0,47,0,20.9,0,48,0,25.3,0,54,0,0,2,21,0,57.8,0
10/2/2003 0:45,24.4,0,47,0,20.8,0,48,0,25.3,0,55,0,0,2,21,0,57.8,0
10/2/2003 1:00,24.3,0,47,0,20.8,0,48,0,25.4,0,55,0,0,2,21,0,57.8,0
10/2/2003 1:15,24.3,0,48,0,20.3,0,49,0,25.5,0,56,0,0,2,20.9,0,57,0
10/2/2003 1:30,24.2,0,48,0,20.3,0,49,0,25.5,0,57,0,0,2,20.7,0,56.3,0
10/2/2003 1:45,24.1,0,48,0,20.2,0,50,0,25.5,0,57,0,0,2,20.6,0,55.5,0
10/2/2003 2:00,24.1,0,48,0,20,0,51,0,25.6,0,57,0,0,2,20.5,0,54.8,0
10/2/2003 2:15,24,0,48,0,20.6,0,48,0,25.5,0,56,0,0,2,20.6,0,54.3,0
10/2/2003 2:30,24,0,48,0,20.4,0,49,0,25.5,0,56,0,0,2,20.7,0,53.8,0
10/2/2003 2:45,23.9,0,48,0,20,0,46,0,25.5,0,57,0,0,2,20.8,0,53.3,0
10/2/2003 3:00,23.9,0,48,0,20,0,46,0,25.5,0,57,0,0,2,20.9,0,52.8,0
10/2/2003 3:15,23.8,0,48,0,20.2,0,47,0,25.5,0,57,0,0,2,20.8,0,52.8,0
10/2/2003 3:30,23.8,0,48,0,19.9,0,47,0,25.5,0,57,0,0,2,20.8,0,52.8,0
10/2/2003 3:45,23.8,0,48,0,19.7,0,48,0,25.5,0,56,0,0,2,20.7,0,52.8,0
10/2/2003 4:00,23.7,0,48,0,19.8,0,48,0,25.5,0,56,0,0,2,20.7,0,52.8,0
10/2/2003 4:15,23.6,0,48,0,19.9,0,48,0,25.4,0,56,0,0,2,20.4,0,54.5,0
10/2/2003 4:30,23.6,0,48,0,19.9,0,48,0,25.5,0,56,0,0,2,20,0,56.3,0
10/2/2003 4:45,23.6,0,48,0,19.8,0,48,0,25.5,0,56,0,0,2,19.7,0,58,0
10/2/2003 5:00,23.5,0,48,0,19.6,0,48,0,25.5,0,56,0,0,2,19.4,0,59.8,0
10/2/2003 5:15,23.5,0,48,0,19.5,0,49,0,25.4,0,56,0,0,2,19.3,0,60.3,0
10/2/2003 5:30,23.4,0,48,0,19.3,0,50,0,25.4,0,56,0,0,2,19.2,0,60.8,0
10/2/2003 5:45,23.4,0,49,0,19.8,0,49,0,25.4,0,56,0,0,2,19.1,0,61.3,0
10/2/2003 6:00,23.4,0,49,0,19.4,0,50,0,25.4,0,56,0,0,2,19,0,61.8,0
10/2/2003 6:15,23.4,0,49,0,19.4,0,51,0,25.4,0,56,0,0,2,19.1,0,61.5,0
10/2/2003 6:30,23.4,0,49,0,19.4,0,51,0,25.2,0,52,0,0,2,19.3,0,61.3,0
10/2/2003 6:45,23.4,0,50,0,20.1,0,50,0,25,0,50,0,0,2,19.4,0,61,0
10/2/2003 7:00,23.4,0,50,0,20,0,50,0,24.9,0,49,0,0,2,19.6,0,60.8,0
10/2/2003 7:15,23.4,0,51,0,19.9,0,49,0,24.8,0,49,0,0,2,20.3,0,57,0
10/2/2003 7:30,23.5,0,50,0,20,0,49,0,24.8,0,49,0,0,2,21,0,53.3,0
10/2/2003 7:45,23.6,0,49,0,20.6,0,48,0,25.1,0,49,0,0,2,21.7,0,49.5,0
10/2/2003 8:00,23.7,0,49,0,20.8,0,47,0,25.2,0,47,0,0,2,22.4,0,45.8,0
10/2/2003 8:15,23.8,0,48,0,21.2,0,44,0,25.2,0,46,0,0,2,22.4,0,46.5,0
10/2/2003 8:30,23.9,0,47,0,21.4,0,44,0,25.3,0,46,0,0,2,22.5,0,47.3,0
10/2/2003 8:45,24,0,47,0,21.6,0,44,0,25.4,0,45,0,0,2,22.5,0,48,0
10/2/2003 9:00,24,0,47,0,21.8,0,44,0,25.4,0,45,0,0,2,22.6,0,48.8,0
10/2/2003 9:15,24,0,47,0,21.9,0,44,0,25.4,0,45,0,0,2,22.8,0,49.8,0
10/2/2003 9:30,24.1,0,47,0,22,0,43,0,25.4,0,45,0,0,2,23,0,50.8,0
10/2/2003 9:45,24.1,0,47,0,22.1,0,42,0,25.4,0,45,0,0,2,23.2,0,51.8,0
10/2/2003 10:00,24.2,0,46,0,22.2,0,44,0,25.5,0,45,0,0,2,23.4,0,52.8,0
10/2/2003 10:15,24.4,0,46,0,23.1,0,39,0,25.5,0,43,0,0,2,23.4,0,53.5,0
10/2/2003 10:30,24.6,0,46,0,24.2,0,37,0,25.9,0,43,0,0,2,23.5,0,54.3,0
10/2/2003 10:45,24.7,0,46,0,24.2,0,37,0,26.2,0,40,0,0,2,23.5,0,55,0
10/2/2003 11:00,25,0,45,0,24.9,0,35,0,26.5,0,41,0,0,2,23.6,0,55.8,0
10/2/2003 11:15,25.1,0,45,0,25.3,0,34,0,26.8,0,41,0,0,2,24,0,54.5,0
10/2/2003 11:30,25.2,0,45,0,25.4,0,34,0,27,0,41,0,0,2,24.4,0,53.3,0
10/2/2003 11:45,25.3,0,45,0,26.2,0,34,0,27.2,0,40,0,0,2,24.9,0,52,0
10/2/2003 12:00,25.4,0,44,0,27.5,0,32,0,27.5,0,39,0,0,2,25.3,0,50.8,0
10/2/2003 12:15,25.4,0,44,0,26.7,0,35,0,27.5,0,40,0,0,2,25.4,0,50.8,0
10/2/2003 12:30,25.5,0,44,0,27.3,0,36,0,27.8,0,40,0,0,2,25.5,0,50.8,0
10/2/2003 12:45,25.6,0,44,0,27.5,0,36,0,28,0,40,0,0,2,25.7,0,50.8,0
10/2/2003 13:00,25.6,0,45,0,27.3,0,37,0,28,0,40,0,0,2,25.8,0,50.8,0
10/2/2003 13:15,25.7,0,45,0,27.7,0,37,0,28,0,41,0,0,2,26.2,0,50.3,0
10/2/2003 13:30,25.8,0,45,0,28.3,0,36,0,28.1,0,41,0,0,2,26.5,0,49.8,0
10/2/2003 13:45,25.9,0,47,0,28.7,0,36,0,28.2,0,41,0,0,2,26.9,0,49.3,0
10/2/2003 14:00,26,0,48,0,28.7,0,35,0,28.3,0,41,0,0,2,27.3,0,48.8,0
10/2/2003 14:15,26.7,0,45,0,29.6,0,33,0,28.4,0,40,0,0,2,27.3,0,49,0
10/2/2003 14:30,27.6,0,44,0,29.6,0,33,0,28.5,0,40,0,0,2,27.2,0,49.3,0
10/2/2003 14:45,28.3,0,38,0,28.8,0,33,0,28.3,0,39,0,0,2,27.2,0,49.5,0
10/2/2003 15:00,28.4,0,37,0,28.6,0,34,0,28.4,0,39,0,0,2,27.2,0,49.8,0
10/2/2003 15:15,28.4,0,36,0,28.4,0,33,0,28.2,0,39,0,0,2,27.1,0,50.3,0
10/2/2003 15:30,27.7,0,35,0,27.5,0,33,0,27.9,0,38,0,0,2,27,0,50.8,0
10/2/2003 15:45,27.8,0,34,0,27.5,0,32,0,27.8,0,37,0,0,2,27,0,51.3,0
10/2/2003 16:00,27.6,0,33,0,27.2,0,31,0,27.7,0,35,0,0,2,26.9,0,51.8,0
10/2/2003 16:15,26.8,0,34,0,26.4,0,33,0,27.6,0,36,0,0,2,26.4,0,49.5,0
10/2/2003 16:30,26,0,35,0,25.6,0,33,0,27.3,0,36,0,0,2,25.9,0,47.3,0
10/2/2003 16:45,25.7,0,36,0,25.3,0,34,0,27.2,0,35,0,0,2,25.5,0,45,0
10/2/2003 17:00,25.3,0,35,0,24.9,0,34,0,27.1,0,35,0,0,2,25,0,42.8,0
10/2/2003 17:15,25.6,0,35,0,24.8,0,32,0,27,0,35,0,0,2,24.8,0,42,0
10/2/2003 17:30,26.1,0,34,0,24.6,0,31,0,26.9,0,35,0,0,2,24.6,0,41.3,0
10/2/2003 17:45,26.2,0,33,0,24.4,0,31,0,26.8,0,35,0,0,2,24.4,0,40.5,0
10/2/2003 18:00,26.1,0,31,0,24.3,0,29,0,26.7,0,33,0,0,2,24.2,0,39.8,0
10/2/2003 18:15,26,0,30,0,24.2,0,28,0,26.7,0,33,0,0,2,24.1,0,38.3,0
10/2/2003 18:30,26,0,29,0,24.1,0,27,0,26.6,0,33,0,0,2,24.1,0,36.8,0
10/2/2003 18:45,26,0,29,0,23.9,0,28,0,26.6,0,33,0,0,2,24,0,35.3,0
10/2/2003 19:00,25.8,0,29,0,23.7,0,28,0,26.5,0,33,0,0,2,24,0,33.8,0
10/2/2003 19:15,25.7,0,28,0,23.4,0,28,0,26.4,0,33,0,0,2,23.7,0,34.5,0
10/2/2003 19:30,25.6,0,29,0,23.1,0,29,0,26.2,0,31,0,0,2,23.4,0,35.3,0
10/2/2003 19:45,25.5,0,29,0,22.9,0,31,0,26.1,0,31,0,0,2,23.2,0,36,0
10/2/2003 20:00,25.4,0,29,0,22.6,0,31,0,26,0,31,0,0,2,22.9,0,36.8,0
10/2/2003 20:15,25.2,0,30,0,22.5,0,33,0,25.9,0,32,0,0,2,22.6,0,37.3,0
10/2/2003 20:30,25.2,0,31,0,22,0,33,0,26,0,33,0,0,2,22.4,0,37.8,0
10/2/2003 20:45,25.2,0,32,0,21.8,0,34,0,26,0,33,0,0,2,22.1,0,38.3,0
10/2/2003 21:00,25.1,0,32,0,21.6,0,34,0,25.9,0,34,0,0,2,21.9,0,38.8,0
10/2/2003 21:15,25.1,0,31,0,21.7,0,34,0,25.9,0,35,0,0,2,21.8,0,39,0
10/2/2003 21:30,25.1,0,31,0,21.8,0,33,0,25.9,0,34,0,0,2,21.6,0,39.3,0
10/2/2003 21:45,25,0,31,0,21.6,0,34,0,25.8,0,34,0,0,2,21.5,0,39.5,0
10/2/2003 22:00,25,0,32,0,21.5,0,34,0,25.7,0,34,0,0,2,21.4,0,39.8,0
10/2/2003 22:15,25,0,32,0,21.4,0,34,0,25.7,0,35,0,0,2,21.2,0,40.3,0
10/2/2003 22:30,25,0,33,0,21.2,0,34,0,25.8,0,37,0,0,2,21,0,40.8,0
10/2/2003 22:45,25.1,0,33,0,21.4,0,34,0,25.7,0,38,0,0,2,20.8,0,41.3,0
10/2/2003 23:00,25.1,0,34,0,21.4,0,34,0,25.7,0,39,0,0,2,20.6,0,41.8,0
10/2/2003 23:15,25.1,0,34,0,21.3,0,34,0,25.8,0,40,0,0,2,20.5,0,41.8,0
10/2/2003 23:30,25.3,0,35,0,21,0,34,0,25.8,0,41,0,0,2,20.5,0,41.8,0
10/2/2003 23:45,25.4,0,36,0,21.1,0,35,0,25.9,0,42,0,0,2,20.4,0,41.8,0
10/3/2003 0:00,25.3,0,36,0,21.1,0,35,0,25.9,0,43,0,0,2,20.4,0,41.8,0
10/3/2003 0:15,25.1,0,36,0,20.9,0,35,0,26,0,44,0,0,2,20.3,0,42.5,0
10/3/2003 0:30,25,0,35,0,20.7,0,36,0,26,0,44,0,0,2,20.1,0,43.3,0
10/3/2003 0:45,24.9,0,36,0,20.7,0,36,0,26,0,45,0,0,2,20,0,44,0
10/3/2003 1:00,24.7,0,35,0,20.6,0,35,0,26,0,46,0,0,2,19.9,0,44.8,0
10/3/2003 1:15,24.6,0,35,0,20.6,0,34,0,26,0,47,0,0,2,19.7,0,44.8,0
10/3/2003 1:30,24.5,0,35,0,21,0,34,0,26,0,47,0,0,2,19.6,0,44.8,0
10/3/2003 1:45,24.4,0,35,0,20.8,0,35,0,26,0,48,0,0,2,19.4,0,44.8,0
10/3/2003 2:00,24.3,0,35,0,20.1,0,36,0,26,0,48,0,0,2,19.3,0,44.8,0
10/3/2003 2:15,24.2,0,36,0,20.4,0,36,0,26,0,50,0,0,2,19.2,0,45.3,0
10/3/2003 2:30,24.1,0,36,0,20,0,38,0,26.1,0,52,0,0,2,19.2,0,45.8,0
10/3/2003 2:45,24,0,36,0,19.7,0,39,0,26.1,0,52,0,0,2,19.1,0,46.3,0
10/3/2003 3:00,23.9,0,37,0,19,0,43,0,26.1,0,53,0,0,2,19.1,0,46.8,0
10/3/2003 3:15,23.8,0,37,0,18.8,0,45,0,26.1,0,53,0,0,2,18.9,0,47.5,0
10/3/2003 3:30,23.7,0,38,0,18.5,0,47,0,26.1,0,52,0,0,2,18.6,0,48.3,0
10/3/2003 3:45,23.6,0,38,0,18.5,0,48,0,26.1,0,52,0,0,2,18.4,0,49,0
10/3/2003 4:00,23.5,0,39,0,19.1,0,47,0,26,0,51,0,0,2,18.2,0,49.8,0
10/3/2003 4:15,23.4,0,39,0,19.7,0,44,0,26,0,51,0,0,2,18.1,0,50,0
10/3/2003 4:30,23.4,0,39,0,19.2,0,48,0,26,0,51,0,0,2,18,0,50.3,0
10/3/2003 4:45,23.3,0,40,0,19.2,0,50,0,26,0,51,0,0,2,18,0,50.5,0
10/3/2003 5:00,23.2,0,41,0,20.2,0,48,0,26,0,51,0,0,2,17.9,0,50.8,0
10/3/2003 5:15,23.2,0,41,0,19.4,0,51,0,25.9,0,51,0,0,2,17.9,0,51.8,0
10/3/2003 5:30,23.1,0,42,0,18,0,55,0,25.9,0,51,0,0,2,17.9,0,52.8,0
10/3/2003 5:45,23,0,42,0,17.9,0,57,0,25.9,0,52,0,0,2,18,0,53.8,0
10/3/2003 6:00,23,0,43,0,18.7,0,52,0,25.9,0,51,0,0,2,18,0,54.8,0
10/3/2003 6:15,23,0,43,0,19.4,0,52,0,25.8,0,52,0,0,2,18,0,55.5,0
10/3/2003 6:30,23,0,43,0,19.4,0,49,0,25.8,0,52,0,0,2,18.1,0,56.3,0
10/3/2003 6:45,22.9,0,44,0,19.7,0,50,0,25.8,0,52,0,0,2,18.1,0,57,0
10/3/2003 7:00,22.8,0,44,0,20,0,50,0,25.7,0,52,0,0,2,18.2,0,57.8,0
10/3/2003 7:15,22.8,0,44,0,18.8,0,53,0,25.7,0,52,0,0,2,18.3,0,57.8,0
10/3/2003 7:30,22.9,0,44,0,19.1,0,52,0,25.6,0,47,0,0,2,18.5,0,57.8,0
10/3/2003 7:45,23,0,47,0,19.5,0,51,0,25.3,0,46,0,0,2,18.6,0,57.8,0
10/3/2003 8:00,23.1,0,47,0,20.1,0,48,0,25.2,0,45,0,0,2,18.8,0,57.8,0
10/3/2003 8:15,23.1,0,46,0,20,0,44,0,25.1,0,45,0,0,2,19.1,0,54.8,0
10/3/2003 8:30,23.1,0,45,0,19.9,0,40,0,25,0,45,0,0,2,19.4,0,51.8,0
10/3/2003 8:45,23.2,0,44,0,20.6,0,38,0,25,0,43,0,0,2,19.8,0,48.8,0
10/3/2003 9:00,23.3,0,43,0,20.3,0,38,0,25,0,44,0,0,2,20.1,0,45.8,0
10/3/2003 9:15,23.4,0,43,0,20.8,0,39,0,25.2,0,44,0,0,2,20.3,0,46.3,0
10/3/2003 9:30,23.6,0,41,0,21.1,0,39,0,25.2,0,42,0,0,2,20.5,0,46.8,0
10/3/2003 9:45,24,0,41,0,21.1,0,39,0,25.3,0,44,0,0,2,20.8,0,47.3,0
10/3/2003 10:00,24.2,0,41,0,21.2,0,38,0,25.3,0,44,0,0,2,21,0,47.8,0
10/3/2003 10:15,24.4,0,40,0,21.8,0,37,0,25.3,0,43,0,0,2,21.4,0,46.8,0
10/3/2003 10:30,24.4,0,39,0,22,0,35,0,25.4,0,42,0,0,2,21.8,0,45.8,0
10/3/2003 10:45,24.4,0,39,0,22.1,0,35,0,25.4,0,41,0,0,2,22.3,0,44.8,0
10/3/2003 11:00,24.4,0,39,0,22,0,35,0,25.4,0,41,0,0,2,22.7,0,43.8,0
10/3/2003 11:15,24.5,0,38,0,22.3,0,34,0,25.4,0,40,0,0,2,22.8,0,42.8,0
10/3/2003 11:30,24.5,0,38,0,22.3,0,34,0,25.5,0,40,0,0,2,22.8,0,41.8,0
10/3/2003 11:45,24.5,0,37,0,22.1,0,34,0,25.5,0,40,0,0,2,22.9,0,40.8,0
10/3/2003 12:00,24.5,0,37,0,23.3,0,33,0,25.5,0,40,0,0,2,23,0,39.8,0
10/3/2003 12:15,24.5,0,37,0,22.7,0,33,0,25.6,0,39,0,0,2,23,0,40,0
10/3/2003 12:30,24.5,0,37,0,24.1,0,31,0,25.7,0,38,0,0,2,22.9,0,40.3,0
10/3/2003 12:45,24.5,0,37,0,24.3,0,30,0,25.8,0,38,0,0,2,22.9,0,40.5,0
10/3/2003 13:00,24.6,0,37,0,24.8,0,28,0,26,0,37,0,0,2,22.9,0,40.8,0
10/3/2003 13:15,24.6,0,37,0,24.7,0,28,0,26.1,0,37,0,0,2,22.6,0,42.5,0
10/3/2003 13:30,24.7,0,37,0,25,0,28,0,26.2,0,37,0,0,2,22.2,0,44.3,0
10/3/2003 13:45,24.7,0,37,0,24.4,0,29,0,26.3,0,36,0,0,2,21.9,0,46,0
10/3/2003 14:00,24.8,0,37,0,24.8,0,29,0,26.5,0,36,0,0,2,21.6,0,47.8,0
10/3/2003 14:15,24.9,0,37,0,24.4,0,30,0,26.5,0,36,0,0,2,21.6,0,48,0
10/3/2003 14:30,24.9,0,38,0,23.6,0,32,0,26.5,0,36,0,0,2,21.7,0,48.3,0
10/3/2003 14:45,25,0,38,0,24.1,0,31,0,26.6,0,37,0,0,2,21.7,0,48.5,0
10/3/2003 15:00,25.1,0,38,0,24.1,0,31,0,26.7,0,37,0,0,2,21.8,0,48.8,0
10/3/2003 15:15,25.3,0,38,0,23.9,0,31,0,26.7,0,36,0,0,2,21.8,0,48.3,0
10/3/2003 15:30,25.3,0,38,0,23.8,0,31,0,26.7,0,37,0,0,2,21.7,0,47.8,0
10/3/2003 15:45,25.3,0,38,0,23.4,0,31,0,26.6,0,38,0,0,2,21.7,0,47.3,0
10/3/2003 16:00,25.2,0,38,0,23.3,0,32,0,26.5,0,38,0,0,2,21.7,0,46.8,0
10/3/2003 16:15,25,0,37,0,23.2,0,31,0,26.5,0,39,0,0,2,21.6,0,48,0
10/3/2003 16:30,25.1,0,37,0,23,0,31,0,26.4,0,39,0,0,2,21.6,0,49.3,0
10/3/2003 16:45,25.1,0,36,0,22.7,0,29,0,26.3,0,38,0,0,2,21.5,0,50.5,0
10/3/2003 17:00,25,0,35,0,22.6,0,29,0,26.2,0,38,0,0,2,21.5,0,51.8,0
10/3/2003 17:15,24.9,0,34,0,22.4,0,29,0,26.2,0,39,0,0,2,21.4,0,50.5,0
10/3/2003 17:30,24.8,0,34,0,22.2,0,28,0,26.1,0,36,0,0,2,21.3,0,49.3,0
10/3/2003 17:45,24.6,0,32,0,22.1,0,28,0,25.9,0,34,0,0,2,21.3,0,48,0
10/3/2003 18:00,24.6,0,31,0,22,0,28,0,25.8,0,33,0,0,2,21.2,0,46.8,0
10/3/2003 18:15,24.6,0,31,0,21.9,0,28,0,25.7,0,32,0,0,2,21.1,0,44.5,0
10/3/2003 18:30,24.5,0,31,0,21.9,0,29,0,25.6,0,33,0,0,2,21,0,42.3,0
10/3/2003 18:45,24.5,0,32,0,22,0,29,0,25.5,0,32,0,0,2,21,0,40,0
10/3/2003 19:00,24.6,0,33,0,21.7,0,29,0,25.2,0,31,0,0,2,20.9,0,37.8,0
10/3/2003 19:15,24.7,0,33,0,21.5,0,30,0,25,0,30,0,0,2,20.8,0,37.3,0
10/3/2003 19:30,24.7,0,34,0,21.4,0,30,0,24.9,0,33,0,0,2,20.7,0,36.8,0
10/3/2003 19:45,24.8,0,34,0,21.2,0,30,0,24.7,0,30,0,0,2,20.7,0,36.3,0
10/3/2003 20:00,24.7,0,34,0,20.9,0,31,0,24.6,0,33,0,0,2,20.6,0,35.8,0
10/3/2003 20:15,24.7,0,33,0,20.7,0,30,0,24,0,31,0,0,2,20.4,0,36.8,0
10/3/2003 20:30,24.7,0,33,0,20.4,0,30,0,23.9,0,30,0,0,2,20.2,0,37.8,0
10/3/2003 20:45,24.7,0,32,0,20.4,0,31,0,23.8,0,31,0,0,2,20,0,38.8,0
10/3/2003 21:00,24.6,0,32,0,20.1,0,32,0,24,0,33,0,0,2,19.8,0,39.8,0
10/3/2003 21:15,24.6,0,32,0,19.9,0,34,0,23.8,0,33,0,0,2,19.6,0,40.3,0
10/3/2003 21:30,24.5,0,33,0,19.7,0,34,0,23.8,0,33,0,0,2,19.4,0,40.8,0
10/3/2003 21:45,24.5,0,32,0,19.8,0,34,0,23.8,0,34,0,0,2,19.3,0,41.3,0
10/3/2003 22:00,24.4,0,33,0,19.6,0,35,0,23.8,0,34,0,0,2,19.1,0,41.8,0
10/3/2003 22:15,24.4,0,33,0,19.4,0,34,0,23.6,0,33,0,0,2,19,0,43.3,0
10/3/2003 22:30,24.3,0,33,0,19.3,0,35,0,23.8,0,36,0,0,2,18.8,0,44.8,0
10/3/2003 22:45,24.2,0,34,0,19.6,0,35,0,23.9,0,38,0,0,2,18.7,0,46.3,0
10/3/2003 23:00,24.1,0,35,0,19.5,0,36,0,24,0,39,0,0,2,18.6,0,47.8,0
10/3/2003 23:15,24,0,35,0,18.9,0,36,0,24,0,40,0,0,2,18.5,0,48.5,0
10/3/2003 23:30,23.9,0,36,0,19.1,0,37,0,24.1,0,41,0,0,2,18.4,0,49.3,0
10/3/2003 23:45,23.9,0,36,0,18.7,0,37,0,24.1,0,42,0,0,2,18.3,0,50,0
10/4/2003 0:00,23.8,0,37,0,18.7,0,37,0,24.2,0,44,0,0,2,18.2,0,50.8,0
10/4/2003 0:15,23.8,0,37,0,19.3,0,37,0,24.2,0,45,0,0,2,18.1,0,51.3,0
10/4/2003 0:30,23.7,0,37,0,19.7,0,36,0,24.3,0,45,0,0,2,18,0,51.8,0
10/4/2003 0:45,23.6,0,38,0,19.6,0,36,0,24.3,0,46,0,0,2,17.9,0,52.3,0
10/4/2003 1:00,23.5,0,38,0,19.6,0,36,0,24.4,0,47,0,0,2,17.8,0,52.8,0
10/4/2003 1:15,23.6,0,38,0,19.4,0,37,0,24.5,0,48,0,0,2,17.9,0,50.8,0
10/4/2003 1:30,23.4,0,38,0,19.5,0,36,0,24.6,0,49,0,0,2,17.9,0,48.8,0
10/4/2003 1:45,23.4,0,38,0,18.4,0,37,0,24.6,0,49,0,0,2,18,0,46.8,0
10/4/2003 2:00,23.4,0,38,0,19.1,0,37,0,24.6,0,49,0,0,2,18.1,0,44.8,0
10/4/2003 2:15,23.3,0,39,0,19.4,0,36,0,24.6,0,49,0,0,2,18.1,0,44.5,0
10/4/2003 2:30,23.3,0,39,0,19.1,0,36,0,24.7,0,49,0,0,2,18.1,0,44.3,0
10/4/2003 2:45,23.2,0,39,0,18.8,0,38,0,24.7,0,49,0,0,2,18.1,0,44,0
10/4/2003 3:00,23.2,0,39,0,18.6,0,38,0,24.7,0,50,0,0,2,18.1,0,43.8,0
10/4/2003 3:15,23.1,0,39,0,19.4,0,37,0,24.7,0,50,0,0,2,18,0,44.3,0
10/4/2003 3:30,23.1,0,39,0,19.4,0,37,0,24.7,0,49,0,0,2,17.8,0,44.8,0
10/4/2003 3:45,23,0,39,0,18.8,0,37,0,24.7,0,49,0,0,2,17.7,0,45.3,0
10/4/2003 4:00,23,0,39,0,19.4,0,36,0,24.7,0,49,0,0,2,17.6,0,45.8,0
10/4/2003 4:15,22.9,0,39,0,19.5,0,36,0,24.7,0,49,0,0,2,17.6,0,46.5,0
10/4/2003 4:30,22.9,0,39,0,19.2,0,37,0,24.6,0,49,0,0,2,17.6,0,47.3,0
10/4/2003 4:45,22.9,0,39,0,19.4,0,36,0,24.7,0,49,0,0,2,17.6,0,48,0
10/4/2003 5:00,22.9,0,39,0,19.4,0,37,0,24.6,0,49,0,0,2,17.6,0,48.8,0
10/4/2003 5:15,22.7,0,39,0,19.4,0,36,0,24.5,0,49,0,0,2,17.6,0,48.8,0
10/4/2003 5:30,22.8,0,39,0,19.4,0,37,0,24.5,0,49,0,0,2,17.5,0,48.8,0
10/4/2003 5:45,22.7,0,39,0,19.4,0,37,0,24.5,0,49,0,0,2,17.5,0,48.8,0
10/4/2003 6:00,22.6,0,40,0,19.3,0,37,0,24.4,0,49,0,0,2,17.5,0,48.8,0
10/4/2003 6:15,22.6,0,40,0,19.1,0,38,0,24.4,0,50,0,0,2,17.5,0,49.3,0
10/4/2003 6:30,22.6,0,40,0,19.2,0,37,0,24.4,0,50,0,0,2,17.6,0,49.8,0
10/4/2003 6:45,22.5,0,40,0,19.4,0,37,0,24.3,0,50,0,0,2,17.6,0,50.3,0
10/4/2003 7:00,22.5,0,40,0,18.4,0,39,0,24.3,0,50,0,0,2,17.7,0,50.8,0
10/4/2003 7:15,22.6,0,40,0,18.3,0,40,0,24.4,0,51,0,0,2,17.6,0,51,0
10/4/2003 7:30,22.6,0,41,0,18.9,0,40,0,24.4,0,52,0,0,2,17.6,0,51.3,0
10/4/2003 7:45,22.5,0,41,0,18.9,0,39,0,24.4,0,53,0,0,2,17.5,0,51.5,0
10/4/2003 8:00,22.5,0,41,0,19.1,0,39,0,24.5,0,51,0,0,2,17.5,0,51.8,0
10/4/2003 8:15,22.4,0,41,0,19,0,39,0,24.6,0,51,0,0,2,17.6,0,50.8,0
10/4/2003 8:30,22.4,0,41,0,18,0,41,0,24.2,0,46,0,0,2,17.7,0,49.8,0
10/4/2003 8:45,22.4,0,42,0,18.8,0,40,0,24,0,45,0,0,2,17.8,0,48.8,0
10/4/2003 9:00,22.5,0,43,0,18.6,0,42,0,23.9,0,44,0,0,2,17.9,0,47.8,0
10/4/2003 9:15,22.5,0,43,0,18,0,43,0,23.8,0,44,0,0,2,18,0,48,0
10/4/2003 9:30,22.5,0,43,0,17.8,0,43,0,23.7,0,44,0,0,2,18,0,48.3,0
10/4/2003 9:45,22.5,0,43,0,17.6,0,43,0,23.7,0,44,0,0,2,18.1,0,48.5,0
10/4/2003 10:00,22.8,0,42,0,18.6,0,40,0,23.7,0,44,0,0,2,18.2,0,48.8,0
10/4/2003 10:15,23.1,0,41,0,19.1,0,39,0,23.8,0,43,0,0,2,18.6,0,48,0
10/4/2003 10:30,23.3,0,41,0,19.6,0,37,0,24.1,0,42,0,0,2,19.1,0,47.3,0
10/4/2003 10:45,23.4,0,40,0,20.1,0,36,0,24.3,0,41,0,0,2,19.5,0,46.5,0
10/4/2003 11:00,23.4,0,39,0,20.2,0,36,0,24.5,0,40,0,0,2,20,0,45.8,0
10/4/2003 11:15,23.6,0,38,0,21.2,0,33,0,24.7,0,40,0,0,2,20.2,0,47,0
10/4/2003 11:30,23.7,0,38,0,21.8,0,31,0,25,0,39,0,0,2,20.5,0,48.3,0
10/4/2003 11:45,23.7,0,37,0,22.9,0,29,0,25.1,0,37,0,0,2,20.7,0,49.5,0
10/4/2003 12:00,23.8,0,36,0,22.8,0,28,0,25.2,0,36,0,0,2,21,0,50.8,0
10/4/2003 12:15,23.8,0,35,0,22.8,0,31,0,25.3,0,35,0,0,2,21,0,50.5,0
10/4/2003 12:30,23.7,0,36,0,23.1,0,31,0,25.3,0,34,0,0,2,21.1,0,50.3,0
10/4/2003 12:45,23.8,0,36,0,22.9,0,32,0,25.5,0,35,0,0,2,21.1,0,50,0
10/4/2003 13:00,23.7,0,36,0,23.2,0,32,0,25.4,0,34,0,0,2,21.2,0,49.8,0
10/4/2003 13:15,23.8,0,37,0,23,0,32,0,25.5,0,34,0,0,2,21,0,50.3,0
10/4/2003 13:30,24,0,38,0,22.8,0,33,0,25.5,0,33,0,0,2,20.8,0,50.8,0